[Iaude] MPEC H28: 2017 HV109 [a=45.08,e=0.13,i=10.6,H=8.0]

mpec at cfa.harvard.edu mpec at cfa.harvard.edu
Thu Apr 18 10:18:13 EDT 2024


M.P.E.C. 2024-H28                                Issued 2024 April 18, 14:16 UT

     The Minor Planet Electronic Circulars contain information on unusual
         minor planets, routine data on comets and natural satellites,
         and occasional editorial announcements.  They are published
    on behalf of Division F of the International Astronomical Union by the
          Minor Planet Center, Smithsonian Astrophysical Observatory,
                          Cambridge, MA 02138, U.S.A.
			  
             Prepared using the Tamkin Foundation Computer Network

                              MPC at CFA.HARVARD.EDU
            URL https://www.minorplanetcenter.net/    ISSN 1523-6714

                                   2017 HV109                                   


Observations:
     K17HA9V 4C2017 03 06.55712 13 14 14.26 -00 36 17.5          24.0 r1EH028T09
     K17HA9V 4C2017 03 06.56884 13 14 14.22 -00 36 17.2          23.9 r1EH028T09
     K17HA9V 4C2017 03 06.59672 13 14 14.12 -00 36 16.3          24.1 r1EH028T09
     K17HA9V 4C2017 03 06.63947 13 14 13.97 -00 36 15.0          23.9 r1EH028T09
     K17HA9V*4C2017 04 26.35257 13 10 38.73 -00 11 11.2          24.7 g1EH028T09
     K17HA9V 4C2017 04 26.36735 13 10 38.66 -00 11 10.9          24.5 g1EH028T09
     K17HA9V 4C2017 04 26.41006 13 10 38.47 -00 11 09.7          24.7 g1EH028T09
     K17HA9V 4C2019 04 07.41794 13 23 08.80 -01 01 48.5          23.2 i1EH028T09
     K17HA9V 4C2019 04 07.45863 13 23 08.60 -01 01 47.3          23.4 i1EH028T09
     K17HA9V 4C2019 04 07.51517 13 23 08.34 -01 01 45.6          23.7 i1EH028T09
     K17HA9V 4C2019 05 28.29886 13 19 46.12 -00 43 01.0          24.1 z1EH028T09
     K17HA9V 4C2019 05 28.33960 13 19 45.99 -00 43 00.7          24.3 z1EH028T09
     K17HA9V 4C2019 05 28.39346 13 19 45.85 -00 43 00.2          24.9 z1EH028T09

Observer details:
T09 Subaru Telescope, Maunakea.  Observers H. Aihara, Y. AlSayyad, M. Ando, R.
    Armstrong, J. Bosch, E. Egami, H. Furusawa, J. Furusawa, S. Harasawa, Y.
    Harikane, B.-C. Hsieh, H. Ikeda, K. Ito, I. Iwata, T. Kodama, M. Koike, M.
    Kokubo, Y. Komiyama, X. Li, Y. Liang, Y.-T. Lin, R. H. Lupton, N. B. Lust,
    L. A. MacArthur, K. Mawatari, S. Mineo, H. Miyatake, S. Miyazaki, S. More,
    T. Morishima, H. Murayama, K. Nakajima, F. Nakata, A. J. Nishizawa, M.
    Oguri, N. Okabe, Y. Okura, Y. Ono, K. Osato, M. Ouchi, Y.-C. Pan, A. A.
    Plazas Malagon, P. A. Price, S. L. Reed, E. S. Rykoff, T. Shibuya, M.
    Simunovic, M. A. Strauss, K. Sugimori, Y. Suto, N. Suzuki, M. Takada, Y.
    Takagi, T. Takata, S. Takita, M. Tanaka, S. Tang, D. S. Taranu, T. Terai,
    Y. Toba, E. L. Turner, H. Uchiyama, B. Vijarnwannaluk, C. Z. Waters, Y.
    Yamada, N. Yamamoto, T. Yamashita.  Measurers R. Aikawa, A. Sasaki, H.
    Fukuyama.  8.2-m f/2.0 reflector + CCD(HSC).

Orbital elements:
2017 HV109                                                                      
Epoch 2024 Mar. 31.0 TT = JDT 2460400.5                 Alexandersen            
M  53.56836              (2000.0)            P               Q                  
n   0.00325672     Peri.  341.83136     -0.77367756     -0.63002822             
a  45.0763970      Node   158.67875     +0.60175502     -0.76378530             
e   0.1263235      Incl.   10.61676     +0.19827742     -0.14034406             
P 303              H    8.03          G   0.15           U   6                  
Residuals in seconds of arc
170306 T09  0.0   0.0     170426 T09  0.0   0.1-    190528 T09  0.0   0.1+
170306 T09  0.0   0.0     170426 T09  0.1-  0.0     190528 T09  0.2-  0.0
170306 T09  0.0   0.0     190407 T09  0.2+  0.0     190528 T09  0.1+  0.1-
170306 T09  0.1+  0.0     190407 T09  0.1-  0.0
170426 T09  0.1+  0.0     190407 T09  0.1-  0.0

Ephemeris:
2017 HV109               a,e,i = 45.08, 0.13, 11                 q = 39.3822
Date    TT    R. A. (2000) Decl.     Delta      r    Elong.  Phase     V
2024 03 19    13 51 32.3 -02 51 41  41.3405 42.2106   150.6     0.7    24.4
...
2024 04 03    13 50 32.5 -02 44 22  41.2507 42.2151   164.5     0.4    24.3
...
2024 04 11    13 49 57.7 -02 40 31  41.2291 42.2175   170.4     0.2    24.3
...
2024 04 17    13 49 31.1 -02 37 44  41.2253 42.2193   171.9     0.2    24.3
2024 04 18    13 49 26.6 -02 37 16  41.2257 42.2196   171.7     0.2    24.3
2024 04 19    13 49 22.1 -02 36 49  41.2264 42.2199   171.5     0.2    24.3
...
2024 04 25    13 48 55.4 -02 34 12  41.2368 42.2217   168.1     0.3    24.3
...
2024 05 03    13 48 20.3 -02 30 57  41.2668 42.2241   161.5     0.4    24.3
...
2024 05 18    13 47 19.0 -02 25 53  41.3707 42.2286   147.6     0.7    24.4

M. P. C. Staff               (C) Copyright 2024 MPC           M.P.E.C. 2024-H28





More information about the Iaude mailing list